Location: Beugnon
(47.6222°N, 3.7850°E)
Time: 11:00:48
(UTC+00:00)

ATLAS 5 CENTAUR R/B - Pass Details

Date: 09 April 2020
Orbit: 543 x 1116 km, 63.4° (Epoch: 01 May)

Event Time Altitude Azimuth Distance (km) Brightness Sun altitude
Rises 19:58:24 0° 229° (SW) 2,734 5.1 -15.2°
Reaches altitude 10° 20:00:32 10° 232° (SW) 1,878 4.3 -15.5°
Maximum altitude 20:04:41 63° 314° (NW) 693 2.0 -16.1°
Drops below altitude 10° 20:09:25 10° 36° (NE) 2,136 4.3 -16.7°
Sets 20:11:58 0° 40° (NE) 3,149 5.1 -17.1°
